This is the latest recevied weather packets stored in our database for station/object ALANSN-2. If no packets are shown the sender has not sent any weather packets the latest 10 day(s).
| Time | Temp. | Humidity | Pressure | Rain* | Wind** | Luminosity | Snow |
|---|---|---|---|---|---|---|---|
| 1787872919 | 21.67° C | 64% | 1028.4 hPa | 0 mm | - | 64 W/m² | - |
| 1787872620 | 21.67° C | 63% | 1028.2 hPa | 0 mm | - | 73 W/m² | - |
| 1787872318 | 21.11° C | 64% | 1028.2 hPa | 0 mm | - | 95 W/m² | - |
| 1787872019 | 21.11° C | 64% | 1028.2 hPa | 0 mm | - | 95 W/m² | - |
| 1787871717 | 21.11° C | 63% | 1027.9 hPa | 0 mm | - | 111 W/m² | - |
| 1787871417 | 22.22° C | 61% | 1028.3 hPa | 0 mm | - | 147 W/m² | - |
| 1787871117 | 22.22° C | 61% | 1028.3 hPa | 0 mm | - | 147 W/m² | - |
| 1787870817 | 22.22° C | 61% | 1028 hPa | 0 mm | - | 150 W/m² | - |
| 1787870520 | 22.22° C | 62% | 1027.9 hPa | 0 mm | - | 177 W/m² | - |
| 1787870219 | 22.22° C | 62% | 1027.9 hPa | 0 mm | - | 177 W/m² | - |
| 1787869920 | 22.22° C | 62% | 1028 hPa | 0 mm | - | 192 W/m² | - |
| 1787869620 | 22.22° C | 62% | 1027.8 hPa | 0 mm | - | 232 W/m² | - |
| 1787869320 | 22.22° C | 62% | 1027.8 hPa | 0 mm | - | 232 W/m² | - |
| 1787869020 | 22.22° C | 61% | 1027.6 hPa | 0 mm | - | 242 W/m² | - |
| 1787868719 | 22.22° C | 61% | 1027.6 hPa | 0 mm | - | 268 W/m² | - |
| 1787868420 | 22.22° C | 61% | 1027.6 hPa | 0 mm | - | 268 W/m² | - |
| 1787868119 | 22.22° C | 61% | 1027.4 hPa | 0 mm | - | 274 W/m² | - |
| 1787867820 | 22.22° C | 61% | 1027.6 hPa | 0 mm | - | 302 W/m² | - |
| 1787867520 | 22.22° C | 61% | 1027.6 hPa | 0 mm | - | 302 W/m² | - |
| 1787867220 | 22.22° C | 62% | 1027.6 hPa | 0 mm | - | 315 W/m² | - |
| 1787866920 | 22.78° C | 62% | 1027.2 hPa | 0 mm | - | 311 W/m² | - |
| 1787866618 | 22.78° C | 62% | 1027.2 hPa | 0 mm | - | 311 W/m² | - |
| 1787866319 | 22.78° C | 62% | 1027.5 hPa | 0 mm | - | 339 W/m² | - |
| 1787866020 | 22.78° C | 62% | 1027.2 hPa | 0 mm | - | 375 W/m² | - |
| 1787865720 | 22.78° C | 60% | 1027.1 hPa | 0 mm | - | 390 W/m² | - |
* Rain latest hour (hover to see other rain measurements)
** Current wind speed in m/s (hover to see current wind gust speed)